Regional Weather Roundup
Issued by NWS Jackson, KY

Home | Current Version | Previous Version | Text Only | Print | Product List | Glossary Off
Versions: 1 2 3 4 5 6 7 8 9 10 11 12 13 14 15 16 17 18 19 20 21 22 23 24 25 26 27

000
ASUS43 KJKL 192010
RWRJKL

EAST KENTUCKY HOURLY WEATHER ROUNDUP
NATIONAL WEATHER SERVICE JACKSON KY
400 PM EDT THU APR 19 2018

NOTE: "FAIR" INDICATES FEW OR NO CLOUDS BELOW 12,000 FEET WITH
NO SIGNIFICANT WEATHER AND/OR OBSTRUCTIONS TO VISIBILITY.

* THESE REPORTS ARE NOT UNDER NWS QUALITY CONTROL AND MAY NOT
  REPORT WEATHER SUCH AS PRECIPITATION AND FOG.

KYZ079-080-083-085-087-088-110-112-115-119-120-192100
...EASTERN KENTUCKY...

CITY           SKY/WX    TMP DP  RH WIND       PRES   REMARKS
JACKSON        CLOUDY    44  30  57 VRB5      30.24S
LONDON         CLOUDY    44  30  57 NW10      30.27R
SOMERSET*      CLOUDY    43  30  61 N10       30.30S
MONTICELLO*    CLOUDY    45  31  58 N14       30.31S
WILLIAMSBURG*  CLOUDY    46  28  49 NW9       30.27R
MIDDLESBORO*   CLOUDY    48  31  51 NW10G17   30.25R
HARLAN APT*    CLOUDY    45  26  47 NW9G17    30.23R
PIKE CO APT*   CLOUDY    43  31  62 W7        30.22S
BIG SANDY APT* CLOUDY    44  31  58 W9        30.23S
MOREHEAD APT*  CLOUDY    46  30  53 VRB7G17   30.28R
ASHLAND*       CLOUDY    48  33  56 N9G21     30.25R
$$

KYZ035-036-041-042-044-050-067-078-099-192100
...CENTRAL KENTUCKY...

CITY           SKY/WX    TMP DP  RH WIND       PRES   REMARKS
MT STERLING*   CLOUDY    46  32  57 NW8       30.29S
FLEMING/MASON* PTSUNNY   47  31  52 N8        30.28S
DANVILLE*      CLOUDY    45  32  61 N5        30.30S
LEXINGTON      CLOUDY    47  33  58 NW9       30.28S
FRANKFORT      CLOUDY    49  31  49 NW12G21   30.28S
LOUISVILLE     PTSUNNY   53  32  44 N12G22    30.31S
GLASGOW*       CLOUDY    48  31  52 N9        30.32S
BOWLING GREEN  PTSUNNY   50  31  48 NW9       30.33R
$$

KYZ091>093-OHZ055-061-077-WVZ005-015-034-035-042-192100
...SOUTHERN OHIO/WEST VIRGINIA...

CITY           SKY/WX    TMP DP  RH WIND       PRES   REMARKS
COVINGTON        N/A     51  30  44 N13       30.26S
COLUMBUS       PTSUNNY   50  31  48 NW17      30.19F
DAYTON           N/A     51  31  46 NW16G24   30.24S
WILMINGTON       N/A     49  32  52 NW13G20   30.23F
HUNTINGTON     CLOUDY    45  30  55 NW14      30.23R
CHARLESTON     CLOUDY    44  31  60 W13G28    30.20R
PINEVILLE*     CLOUDY    42  30  61 MISG        N/A
BECKLEY        CLOUDY    37  29  72 NW9G23    30.13R WCI  30
BLUEFIELD      CLOUDY    35  26  69 NW8G18    30.12R WCI  29
LOGAN CO APT*  CLOUDY    41  30  65 NW5G15    30.19R
$$

VAZ002-007-008-TNZ017-027-036-066-071-192100
...SOUTHWEST VIRGINIA/EAST TENNESSEE...

CITY           SKY/WX    TMP DP  RH WIND       PRES   REMARKS
WISE*          CLOUDY    39  30  70 NW12G20   30.19R WCI  32
JONESVILLE*      N/A     52  28  40 NW7       30.23R
ABINGDON*      CLOUDY    45  29  53 NW13G25   30.16S
BRISTOL        PTSUNNY   51  30  44 NW8G17    30.16S
MORRISTOWN*    PTCLDY    52  30  43 N12       30.19S
SEVIERVILLE*   PTCLDY    52  30  43 N10       30.20S
KNOXVILLE      MOSUNNY   54  31  41 MISG      30.20S
LAFOLLETTE*    PTCLDY    52  30  43 VRB6G14   30.26S
OAK RIDGE        N/A     56  31  38 VRB6      30.22S
CROSSVILLE     PTSUNNY   48  28  46 N14G21    30.22S
NASHVILLE        N/A     53  31  42 N12G20    30.32R
$$

...KEY TO REMARKS...
VSB - VISIBILITY IN MILES
WCI - WIND CHILL INDEX
HX  - HEAT INDEX

$$




USA.gov is the U.S. government's official web portal to all federal, state and local government web resources and services.